Date String (YYYY-MM-DD hh:mm:ss) UTC,Instrument flags,Ambient pressure (hPa),Sample flow (lpm),Bypass flow (lpm),Sample temperature (°C),Ambient temperature (°C),ASC tube jacket temperature (°C),LED temperature (°C),Box temperature (°C),Sample RH (%),Span deviation,Mass concentration (μg/m³),Mass concentration (μg/m³),Mass concentration (μg/m³)
DateTimeUTC,F1_M11,P_M11,Q1_M11,Q2_M11,T1_M11,T2_M11,T3_M11,T4_M11,T5_M11,U1_M11,ZSPAN_M11,X0_M11,X2_M11,X1_M11
2022-05-26 00:00:00,,0823.7,4.99,0.00,29.9,28.9,00.0,38.7,31.7,12.6,0000.0,0003.65,0002.44,0002.05
2022-05-26 00:01:00,,0823.6,4.98,0.00,29.9,28.9,00.0,38.7,31.8,12.6,0000.0,0003.99,0002.44,0002.04
2022-05-26 00:02:00,,0823.6,5.01,0.00,29.9,29.0,00.0,38.7,31.8,12.8,0000.0,0003.98,0002.44,0002.03
2022-05-26 00:03:00,,0823.6,4.99,0.00,29.9,29.0,00.0,38.7,31.8,13.1,0000.0,0004.13,0002.48,0002.06
2022-05-26 00:04:00,,0823.6,5.02,0.00,29.9,29.0,00.0,38.8,31.7,12.6,0000.0,0004.27,0002.52,0002.08
2022-05-26 00:05:00,,0823.6,5.01,0.00,29.9,29.1,00.0,38.8,31.7,12.4,0000.0,0004.29,0002.54,0002.10
2022-05-26 00:06:00,,0823.6,5.00,0.00,29.9,28.5,00.0,38.7,31.7,12.8,0000.0,0004.42,0002.59,0002.13
2022-05-26 00:07:00,,0823.6,4.99,0.00,29.8,27.4,00.0,38.6,31.3,12.7,0000.0,0004.48,0002.59,0002.15
2022-05-26 00:08:00,,0823.5,5.01,0.00,29.7,26.9,00.0,38.6,31.2,12.8,0000.0,0004.44,0002.58,0002.15
2022-05-26 00:09:00,,0823.5,4.99,0.00,29.6,26.9,00.0,38.5,31.1,12.5,0000.0,0004.37,0002.57,0002.16
2022-05-26 00:10:00,,0823.5,5.00,0.00,29.5,27.1,00.0,38.5,31.1,12.4,0000.0,0004.29,0002.57,0002.16
2022-05-26 00:11:00,,0823.5,4.99,0.00,29.5,27.3,00.0,38.5,31.2,13.1,0000.0,0004.22,0002.58,0002.16
2022-05-26 00:12:00,,0823.5,5.00,0.00,29.5,27.5,00.0,38.5,31.2,12.8,0000.0,0003.67,0002.57,0002.18
2022-05-26 00:13:00,,0823.5,5.00,0.00,29.5,27.7,00.0,38.5,31.2,12.4,0000.0,0003.68,0002.59,0002.20
2022-05-26 00:14:00,,0823.5,5.01,0.00,29.5,27.8,00.0,38.4,31.3,12.5,0000.0,0003.74,0002.64,0002.21
2022-05-26 00:15:00,,0823.5,4.99,0.00,29.5,28.0,00.0,38.4,31.3,12.5,0000.0,0003.64,0002.63,0002.20
2022-05-26 00:16:00,,0823.5,5.00,0.00,29.5,28.1,00.0,38.4,31.3,12.9,0000.0,0003.67,0002.61,0002.18
2022-05-26 00:17:00,,0823.6,5.00,0.00,29.5,28.3,00.0,38.4,31.4,12.4,0000.0,0003.82,0002.61,0002.18
2022-05-26 00:18:00,,0823.6,5.01,0.00,29.5,28.4,00.0,38.4,31.4,12.4,0000.0,0003.64,0002.57,0002.17
2022-05-26 00:19:00,,0823.6,4.99,0.00,29.5,28.5,00.0,38.4,31.4,13.1,0000.0,0003.66,0002.58,0002.18
2022-05-26 00:20:00,,0823.6,4.99,0.00,29.6,28.5,00.0,38.4,31.4,13.3,0000.0,0003.68,0002.59,0002.18
2022-05-26 00:21:00,,0823.6,5.00,0.00,29.6,28.6,00.0,38.5,31.4,13.4,0000.0,0003.69,0002.58,0002.18
2022-05-26 00:22:00,,0823.6,5.00,0.00,29.6,28.6,00.0,38.5,31.5,12.8,0000.0,0004.80,0002.60,0002.19
2022-05-26 00:23:00,,0823.6,5.00,0.00,29.6,28.7,00.0,38.5,31.5,13.1,0000.0,0004.77,0002.59,0002.19
2022-05-26 00:24:00,,0823.6,5.00,0.00,29.6,28.7,00.0,38.5,31.5,12.7,0000.0,0004.81,0002.60,0002.19
2022-05-26 00:25:00,,0823.6,5.00,0.00,29.6,28.8,00.0,38.5,31.5,12.9,0000.0,0004.87,0002.58,0002.19
2022-05-26 00:26:00,,0823.6,4.99,0.00,29.7,28.8,00.0,38.5,31.5,12.9,0000.0,0005.37,0002.56,0002.18
2022-05-26 00:27:00,,0823.5,5.00,0.00,29.7,28.8,00.0,38.5,31.6,13.0,0000.0,0006.36,0002.56,0002.18
2022-05-26 00:28:00,,0823.5,5.01,0.00,29.7,28.9,00.0,38.6,31.6,13.2,0000.0,0006.16,0002.54,0002.19
2022-05-26 00:29:00,,0823.5,4.99,0.00,29.7,28.9,00.0,38.6,31.6,12.6,0000.0,0006.39,0002.59,0002.19
2022-05-26 00:30:00,,0823.6,4.99,0.00,29.7,28.9,00.0,38.6,31.6,12.9,0000.0,0006.50,0002.64,0002.19
2022-05-26 00:31:00,,0823.6,5.00,0.00,29.8,29.0,00.0,38.6,31.7,12.9,0000.0,0006.56,0002.66,0002.19
2022-05-26 00:32:00,,0823.6,5.00,0.00,29.8,28.9,00.0,38.6,31.7,12.7,0000.0,0007.28,0002.68,0002.19
2022-05-26 00:33:00,,0823.6,5.00,0.00,29.7,28.1,00.0,38.6,31.4,12.6,0000.0,0006.37,0002.63,0002.18
2022-05-26 00:34:00,,0823.6,4.99,0.00,29.7,27.6,00.0,38.5,31.3,12.4,0000.0,0006.46,0002.59,0002.17
2022-05-26 00:35:00,,0823.6,4.99,0.00,29.6,27.5,00.0,38.5,31.2,12.3,0000.0,0007.13,0002.61,0002.17
2022-05-26 00:36:00,,0823.6,5.00,0.00,29.6,27.6,00.0,38.5,31.2,12.4,0000.0,0007.40,0002.63,0002.15
2022-05-26 00:37:00,,0823.6,5.01,0.00,29.5,27.7,00.0,38.5,31.3,12.7,0000.0,0007.43,0002.68,0002.16
2022-05-26 00:38:00,,0823.6,4.98,0.00,29.5,27.9,00.0,38.5,31.3,13.1,0000.0,0006.40,0002.71,0002.17
2022-05-26 00:39:00,,0823.6,5.02,0.00,29.5,28.0,00.0,38.5,31.4,12.6,0000.0,0006.53,0002.75,0002.16
2022-05-26 00:40:00,,0823.7,5.01,0.00,29.6,28.2,00.0,38.5,31.4,13.0,0000.0,0006.46,0002.76,0002.16
2022-05-26 00:41:00,,0823.6,4.99,0.00,29.6,28.3,00.0,38.5,31.5,13.1,0000.0,0006.37,0002.72,0002.15
2022-05-26 00:42:00,,0823.7,5.00,0.00,29.6,28.5,00.0,38.5,31.5,12.9,0000.0,0006.33,0002.69,0002.15
2022-05-26 00:43:00,,0823.6,5.00,0.00,29.6,28.6,00.0,38.5,31.5,13.1,0000.0,0005.60,0002.70,0002.14
2022-05-26 00:44:00,,0823.7,5.02,0.00,29.7,28.7,00.0,38.5,31.6,12.9,0000.0,0005.61,0002.75,0002.13
2022-05-26 00:45:00,,0823.6,4.99,0.00,29.7,28.8,00.0,38.5,31.6,12.8,0000.0,0005.55,0002.80,0002.13
2022-05-26 00:46:00,,0823.6,4.99,0.00,29.7,28.8,00.0,38.5,31.6,12.7,0000.0,0005.09,0002.81,0002.14
2022-05-26 00:47:00,,0823.6,5.01,0.00,29.7,28.9,00.0,38.6,31.7,12.6,0000.0,0004.43,0002.74,0002.13
2022-05-26 00:48:00,,0823.6,5.00,0.00,29.8,28.9,00.0,38.6,31.7,12.8,0000.0,0004.33,0002.69,0002.13
2022-05-26 00:49:00,,0823.6,4.99,0.00,29.8,29.0,00.0,38.6,31.7,13.5,0000.0,0004.03,0002.64,0002.12
2022-05-26 00:50:00,,0823.7,5.00,0.00,29.8,29.0,00.0,38.6,31.7,13.0,0000.0,0003.97,0002.62,0002.12
2022-05-26 00:51:00,,0823.6,4.99,0.00,29.8,29.0,00.0,38.6,31.7,12.8,0000.0,0003.97,0002.60,0002.11
2022-05-26 00:52:00,,0823.6,5.00,0.00,29.8,29.0,00.0,38.7,31.7,12.7,0000.0,0003.91,0002.58,0002.10
2022-05-26 00:53:00,,0823.6,4.99,0.00,29.8,28.4,00.0,38.6,31.6,12.8,0000.0,0003.92,0002.59,0002.11
2022-05-26 00:54:00,,0823.6,5.01,0.00,29.8,27.7,00.0,38.5,31.4,12.7,0000.0,0004.74,0002.57,0002.11
2022-05-26 00:55:00,,0823.6,4.99,0.00,29.7,27.6,00.0,38.5,31.3,12.9,0000.0,0005.07,0002.53,0002.12
2022-05-26 00:56:00,,0823.6,5.01,0.00,29.6,27.6,00.0,38.5,31.3,13.1,0000.0,0005.00,0002.51,0002.12
2022-05-26 00:57:00,,0823.7,5.01,0.00,29.6,27.7,00.0,38.5,31.3,13.5,0000.0,0004.92,0002.51,0002.12
2022-05-26 00:58:00,,0823.7,4.99,0.00,29.6,27.9,00.0,38.5,31.3,13.4,0000.0,0005.00,0002.54,0002.12
2022-05-26 00:59:00,,0823.7,5.01,0.00,29.6,28.0,00.0,38.5,31.4,13.0,0000.0,0004.77,0002.52,0002.12
